When you browse on this site, cookies collect data to enhance your experience and personalize the content and advertising you see.
Visit our Privacy Policy to learn more. By continuing to use the site, you agree to this use of cookies and data.
  • In Sweden
  • List of Countries
  • For 7 days
  • Water Temperature
  • Satellite Maps
  • Weather Map
  • Weather Widgets
  • user-avatar
    Login

    Hourly Weather Córdoba

    Today, 17 July, Wednesday

    Time Temperature Precipitation Wind Pressure Humidity
    00:00 +12°C° 0 mm 4 mps 727 mmHg 79%
    01:00 +12°C° 0 mm 4 mps 727 mmHg 80%
    02:00 +12°C° 0 mm 4 mps 727 mmHg 82%
    03:00 +12°C° 0 mm 4 mps 727 mmHg 83%
    04:00 +11°C° 0 mm 4 mps 726 mmHg 84%
    05:00 +11°C° 0 mm 4 mps 726 mmHg 85%
    06:00 +12°C° 0 mm 4 mps 726 mmHg 84%
    07:00 +12°C° 0 mm 4 mps 726 mmHg 82%
    08:00 +12°C° 0 mm 4 mps 727 mmHg 80%
    09:00 +15°C° 0 mm 5 mps 726 mmHg 70%
    10:00 +17°C° 0 mm 6 mps 726 mmHg 60%
    11:00 +21°C° 0 mm 7 mps 726 mmHg 50%
    12:00 +22°C° 0 mm 7 mps 726 mmHg 47%
    13:00 +22°C° 0 mm 7 mps 725 mmHg 44%
    14:00 +23°C° 0 mm 7 mps 725 mmHg 41%
    15:00 +22°C° 0 mm 7 mps 724 mmHg 43%
    16:00 +22°C° 0 mm 6 mps 724 mmHg 46%
    17:00 +21°C° 0 mm 6 mps 723 mmHg 48%
    18:00 +20°C° 0 mm 6 mps 723 mmHg 51%
    19:00 +19°C° 0 mm 6 mps 724 mmHg 55%
    20:00 +17°C° 0 mm 6 mps 724 mmHg 58%
    21:00 +16°C° 0 mm 6 mps 724 mmHg 59%
    22:00 +16°C° 0 mm 6 mps 724 mmHg 61%
    23:00 +15°C° 0 mm 6 mps 724 mmHg 62%

    Tomorrow, 18 July, Thursday

    Time Temperature Precipitation Wind Pressure Humidity
    00:00 +15°C° 0 mm 6 mps 723 mmHg 61%
    01:00 +15°C° 0 mm 5 mps 723 mmHg 61%
    02:00 +14°C° 0 mm 5 mps 723 mmHg 60%
    03:00 +14°C° 0 mm 4 mps 723 mmHg 62%
    04:00 +13°C° 0 mm 3 mps 723 mmHg 64%
    05:00 +13°C° 0 mm 1 mps 723 mmHg 66%
    06:00 +13°C° 0 mm 2 mps 724 mmHg 67%
    07:00 +13°C° 0 mm 2 mps 724 mmHg 68%
    08:00 +13°C° 0 mm 2 mps 725 mmHg 69%
    09:00 +13°C° 0 mm 3 mps 726 mmHg 66%
    10:00 +15°C° 0 mm 5 mps 726 mmHg 63%
    11:00 +16°C° 0 mm 6 mps 727 mmHg 59%
    12:00 +16°C° 0 mm 6 mps 727 mmHg 59%
    13:00 +16°C° 0 mm 6 mps 727 mmHg 59%
    14:00 +16°C° 0 mm 7 mps 727 mmHg 58%
    15:00 +16°C° 0 mm 6 mps 727 mmHg 60%
    16:00 +15°C° 0 mm 5 mps 727 mmHg 61%
    17:00 +14°C° 0 mm 5 mps 727 mmHg 62%
    18:00 +13°C° 0 mm 4 mps 727 mmHg 62%
    19:00 +12°C° 0 mm 4 mps 728 mmHg 62%
    20:00 +11°C° 0 mm 3 mps 728 mmHg 62%
    21:00 +11°C° 0 mm 3 mps 728 mmHg 60%
    22:00 +11°C° 0 mm 3 mps 729 mmHg 58%
    23:00 +12°C° 0 mm 2 mps 729 mmHg 56%

    Day after tomorrow, 19 July, Friday

    Time Temperature Precipitation Wind Pressure Humidity
    00:00 +12°C° 0 mm 2 mps 729 mmHg 57%
    01:00 +11°C° 0 mm 1 mps 728 mmHg 58%
    02:00 +11°C° 0 mm 1 mps 727 mmHg 59%
    03:00 +10°C° 0 mm 1 mps 727 mmHg 62%
    04:00 +10°C° 0 mm 1 mps 727 mmHg 66%
    05:00 +10°C° 0 mm 1 mps 726 mmHg 69%
    06:00 +10°C° 0 mm 1 mps 726 mmHg 70%
    07:00 +10°C° 0 mm 1 mps 726 mmHg 71%
    08:00 +10°C° 0 mm 2 mps 726 mmHg 72%
    09:00 +13°C° 0 mm 2 mps 725 mmHg 66%
    10:00 +14°C° 0 mm 3 mps 725 mmHg 59%
    11:00 +18°C° 0 mm 4 mps 725 mmHg 53%
    12:00 +19°C° 0 mm 5 mps 724 mmHg 50%
    13:00 +20°C° 0 mm 5 mps 723 mmHg 48%
    14:00 +22°C° 0 mm 6 mps 723 mmHg 45%
    15:00 +21°C° 0 mm 6 mps 722 mmHg 48%
    16:00 +20°C° 0 mm 6 mps 721 mmHg 52%
    17:00 +20°C° 0 mm 6 mps 721 mmHg 55%
    18:00 +17°C° 0 mm 6 mps 721 mmHg 63%
    19:00 +16°C° 0 mm 5 mps 720 mmHg 70%
    20:00 +15°C° 0 mm 5 mps 720 mmHg 77%
    21:00 +15°C° 0 mm 4 mps 720 mmHg 78%
    22:00 +15°C° 0 mm 4 mps 720 mmHg 79%
    23:00 +15°C° 0 mm 4 mps 720 mmHg 80%

    20 July, Saturday

    Time Temperature Precipitation Wind Pressure Humidity
    00:00 +16°C° 0 mm 3 mps 720 mmHg 83%
    01:00 +14°C° 0 mm 3 mps 719 mmHg 85%
    02:00 +15°C° 0 mm 2 mps 719 mmHg 87%
    03:00 +15°C° 0 mm 2 mps 719 mmHg 89%
    04:00 +14°C° 0 mm 2 mps 719 mmHg 91%
    05:00 +14°C° 0 mm 1 mps 719 mmHg 92%
    06:00 +14°C° 0 mm 1 mps 719 mmHg 91%
    07:00 +14°C° 0 mm 1 mps 719 mmHg 90%
    08:00 +15°C° 0 mm 1 mps 720 mmHg 89%
    09:00 +15°C° 0 mm 1 mps 720 mmHg 85%
    10:00 +16°C° 0 mm 1 mps 720 mmHg 81%
    11:00 +18°C° 0 mm 1 mps 720 mmHg 77%
    12:00 +18°C° 0 mm 1 mps 719 mmHg 76%
    13:00 +19°C° 0 mm 1 mps 718 mmHg 75%
    14:00 +19°C° 0 mm 1 mps 717 mmHg 74%
    15:00 +19°C° 0 mm 1 mps 717 mmHg 77%
    16:00 +18°C° 0 mm 2 mps 717 mmHg 80%
    17:00 +18°C° 0 mm 2 mps 717 mmHg 83%
    18:00 +17°C° 0 mm 2 mps 717 mmHg 87%
    19:00 +17°C° 0 mm 2 mps 716 mmHg 91%
    20:00 +16°C° 0 mm 2 mps 716 mmHg 95%
    21:00 +17°C° 0 mm 3 mps 716 mmHg 93%
    22:00 +17°C° 0 mm 3 mps 716 mmHg 92%
    23:00 +17°C° 0 mm 3 mps 716 mmHg 90%

    21 July, Sunday

    Time Temperature Precipitation Wind Pressure Humidity
    00:00 +17°C° 0 mm 3 mps 715 mmHg 90%
    01:00 +17°C° 0 mm 3 mps 715 mmHg 89%
    02:00 +16°C° 0 mm 2 mps 714 mmHg 89%
    03:00 +16°C° 0 mm 2 mps 714 mmHg 89%
    04:00 +16°C° 0 mm 2 mps 714 mmHg 89%
    05:00 +16°C° 0 mm 1 mps 714 mmHg 89%
    06:00 +16°C° 0 mm 1 mps 714 mmHg 87%
    07:00 +16°C° 0 mm 1 mps 714 mmHg 86%
    08:00 +16°C° 0 mm 1 mps 715 mmHg 84%
    09:00 +18°C° 0 mm 2 mps 715 mmHg 77%
    10:00 +19°C° 0 mm 3 mps 715 mmHg 70%
    11:00 +20°C° 0 mm 4 mps 716 mmHg 63%
    12:00 +20°C° 0 mm 5 mps 716 mmHg 64%
    13:00 +19°C° 0 mm 5 mps 715 mmHg 64%
    14:00 +19°C° 0 mm 6 mps 715 mmHg 65%
    15:00 +16°C° 0 mm 6 mps 716 mmHg 64%
    16:00 +15°C° 0 mm 7 mps 717 mmHg 62%
    17:00 +12°C° 0 mm 7 mps 717 mmHg 60%
    18:00 +11°C° 0 mm 7 mps 718 mmHg 52%
    19:00 +11°C° 0 mm 7 mps 719 mmHg 44%
    20:00 +10°C° 0 mm 7 mps 720 mmHg 36%
    21:00 +10°C° 0 mm 7 mps 721 mmHg 32%
    22:00 +10°C° 0 mm 7 mps 721 mmHg 28%
    23:00 +9°C° 0 mm 7 mps 722 mmHg 24%

    22 July, Monday

    Time Temperature Precipitation Wind Pressure Humidity
    00:00 +9°C° 0 mm 6 mps 722 mmHg 24%
    01:00 +9°C° 0 mm 5 mps 722 mmHg 24%
    02:00 +10°C° 0 mm 4 mps 723 mmHg 24%
    03:00 +9°C° 0.7 mm 3 mps 723 mmHg 30%
    04:00 +8°C° 0.7 mm 3 mps 724 mmHg 37%
    05:00 +7°C° 0.7 mm 2 mps 725 mmHg 43%
    06:00 +7°C° 0 mm 3 mps 725 mmHg 40%
    07:00 +6°C° 0 mm 4 mps 726 mmHg 36%
    08:00 +6°C° 0 mm 5 mps 727 mmHg 32%
    09:00 +7°C° 0 mm 5 mps 727 mmHg 30%
    10:00 +9°C° 0 mm 5 mps 727 mmHg 28%
    11:00 +10°C° 0 mm 6 mps 728 mmHg 26%
    12:00 +12°C° 0 mm 5 mps 727 mmHg 23%
    13:00 +12°C° 0 mm 5 mps 727 mmHg 20%
    14:00 +13°C° 0 mm 5 mps 726 mmHg 18%
    15:00 +13°C° 0 mm 5 mps 726 mmHg 18%
    16:00 +12°C° 0 mm 4 mps 727 mmHg 18%
    17:00 +12°C° 0 mm 4 mps 727 mmHg 19%
    18:00 +10°C° 0 mm 3 mps 727 mmHg 21%
    19:00 +9°C° 0 mm 3 mps 727 mmHg 24%
    20:00 +7°C° 0 mm 2 mps 728 mmHg 26%
    21:00 +7°C° 0 mm 2 mps 728 mmHg 28%
    22:00 +6°C° 0 mm 2 mps 729 mmHg 30%
    23:00 +6°C° 0 mm 2 mps 729 mmHg 32%
    Show more